FW7405 Weather Reports


time (UTC)temp
F
wind
direction
speed
knots
gust
knots
rain 1hr
in
rain 24hr
in
rain mn
in
humidity
%
barometer
mb
20240222120949 46 338 0.9 0.9 0.00 0.01 0.01 96 1002.2
20240222120448 45 304 0.9 0.9 0.00 0.01 0.01 96 1002.2
20240222115947 45 323 0.0 0.0 0.00 0.01 0.01 95 1002.2
20240222115447 45 312 0.9 2.6 0.00 0.01 0.01 96 1002.2
20240222114946 45 292 1.7 2.6 0.00 0.01 0.01 96 1002.5
20240222114447 45 356 1.7 3.5 0.00 0.01 0.01 96 1002.5
20240222113946 45 305 0.0 0.9 0.00 0.01 0.01 96 1002.5
20240222113446 45 304 0.9 0.9 0.00 0.01 0.01 96 1002.5
20240222112930 45 311 0.9 0.9 0.00 0.01 0.01 96 1002.5
20240222112428 45 295 0.0 0.0 0.00 0.01 0.01 96 1002.5
20240222111926 45 100 0.9 0.9 0.00 0.01 0.01 95 1002.5
20240222111424 45 312 0.0 0.9 0.00 0.01 0.01 96 1002.5
20240222110923 45 357 0.0 0.9 0.07 0.01 0.01 96 1002.5
20240222110421 44 289 0.0 0.0 0.07 0.01 0.01 96 1002.5
20240222105920 0 0.0 0.0 0.00 0.00 0.00 1002.2
20240222105419 0 0.0 0.0 0.00 0.00 0.00 1002.5
20240222104917 0 0.0 0.0 0.00 0.00 0.00 1002.5
20240222104416 0 0.0 0.0 0.00 0.00 0.00 1002.5
20240222103914 0 0.0 0.0 0.00 0.00 0.00 1002.5
20240222103413 0 0.0 0.0 0.00 0.00 0.00 1002.5
20240222102911 0 0.0 0.0 0.00 0.00 0.00 1002.2
20240222102410 0 0.0 0.0 0.00 0.00 0.00 1002.2
20240222101908 0 0.0 0.0 0.00 0.00 0.00 1002.2
20240222101408 0 0.0 0.0 0.00 0.00 0.00 1002.5
20240222100907 0 0.0 0.0 0.00 0.00 0.00 1002.5
20240222100405 0 0.0 0.0 0.00 0.00 0.00 1002.8
20240222095904 0 0.0 0.0 0.00 0.00 0.00 1002.5
20240222095402 0 0.0 0.0 0.00 0.00 0.00 1002.5
20240222094900 0 0.0 0.0 0.00 0.00 0.00 1002.5
20240222094359 0 0.0 0.0 0.00 0.00 0.00 1002.8
20240222093857 0 0.0 0.0 0.00 0.00 0.00 1002.8
20240222093356 0 0.0 0.0 0.00 0.00 0.00 1002.8
20240222092856 0 0.0 0.0 0.00 0.00 0.00 1002.8
20240222092355 0 0.0 0.0 0.00 0.00 0.00 1003.3
20240222091854 48 301 1.7 2.6 0.00 0.00 0.00 88 1003.6
20240222091354 48 301 1.7 2.6 0.00 0.00 0.00 88 1002.8
20240222090852 48 323 2.6 3.5 0.00 0.00 0.00 88 1002.8
20240222090351 48 296 2.6 2.6 0.00 0.00 0.00 87 1002.8
20240222085850 48 315 2.6 2.6 0.00 0.00 0.00 86 1002.8
20240222085348 48 328 3.5 3.5 0.00 0.00 0.00 86 1002.8
20240222084847 47 308 2.6 3.5 0.00 0.00 0.00 86 1002.5
20240222084345 47 44 1.7 2.6 0.00 0.00 0.00 86 1002.5
20240222083843 47 74 1.7 2.6 0.00 0.00 0.00 86 1002.5
20240222083343 47 64 0.9 2.6 0.00 0.00 0.00 87 1002.5
20240222082842 47 57 1.7 2.6 0.00 0.00 0.00 87 1002.5
20240222082340 47 72 1.7 3.5 0.00 0.00 0.00 86 1002.5
20240222081839 47 19 4.3 6.1 0.00 0.00 0.00 85 1002.2
20240222081337 49 26 0.9 2.6 0.00 0.00 0.00 82 1002.8
20240222080235 49 70 4.3 6.1 0.00 0.00 0.00 81 1003.3
20240222075734 49 335 0.9 0.9 0.00 0.00 0.00 81 1003.3
20240222075233 49 352 4.3 5.2 0.00 0.00 0.00 81 1003.3
20240222074732 48 315 4.3 7.8 0.00 0.00 0.00 82 1003.6
20240222074232 48 341 3.5 3.5 0.00 0.00 0.00 82 1003.3
20240222073731 49 303 3.5 3.5 0.00 0.00 0.00 82 1003.6
20240222073230 49 312 3.5 5.2 0.00 0.00 0.00 82 1003.6
20240222072729 49 341 1.7 2.6 0.00 0.00 0.00 82 1003.6
20240222072227 49 38 1.7 2.6 0.00 0.00 0.00 82 1003.6
20240222071728 49 359 0.9 0.9 0.00 0.00 0.00 82 1003.6
20240222071227 49 339 1.7 5.2 0.00 0.00 0.00 82 1003.6
20240222070727 49 307 0.9 0.9 0.00 0.00 0.00 82 1004.0
20240222070226 49 328 1.7 2.6 0.00 0.00 0.00 82 1004.0
20240222065724 49 297 1.7 2.6 0.00 0.00 0.00 83 1004.0
20240222065223 49 278 1.7 2.6 0.00 0.00 0.00 84 1004.0
20240222064722 49 293 0.0 0.0 0.00 0.00 0.00 85 1004.0
20240222064222 49 314 0.9 0.9 0.00 0.00 0.00 86 1004.0
20240222063720 49 298 0.0 0.9 0.00 0.00 0.00 86 1004.0
20240222063220 49 313 1.7 2.6 0.00 0.00 0.00 87 1004.0
20240222062718 50 288 0.0 0.0 0.00 0.00 0.00 87 1004.0
20240222062216 50 298 0.0 0.9 0.00 0.00 0.00 87 1004.0
20240222061715 50 308 0.0 0.0 0.00 0.00 0.00 87 1004.0
20240222061215 50 307 0.9 0.9 0.00 0.00 0.00 86 1004.0
20240222060715 51 286 0.0 0.0 0.00 0.00 0.00 86 1004.0
20240222060213 51 319 0.9 0.9 0.00 0.00 0.00 86 1004.0
20240222055712 51 338 0.0 0.9 0.00 0.00 0.00 86 1004.0
20240222055210 51 304 0.0 0.9 0.00 0.00 0.00 86 1004.3
20240222054708 51 279 0.0 0.0 0.00 0.00 0.00 86 1004.3
20240222054207 51 279 0.0 0.0 0.00 0.00 0.00 85 1004.6
20240222053707 51 269 0.0 0.0 0.00 0.00 0.00 85 1004.3
20240222053207 51 282 0.0 0.0 0.00 0.00 0.00 85 1004.6
20240222052706 51 279 0.0 0.0 0.00 0.00 0.00 85 1004.6
20240222052204 51 282 0.0 0.0 0.00 0.00 0.00 85 1004.6
20240222051703 51 282 0.0 0.0 0.00 0.00 0.00 85 1004.6
20240222051202 51 281 0.0 0.0 0.00 0.00 0.00 84 1005.0
20240222050700 51 276 0.0 0.0 0.00 0.00 0.00 84 1005.0
20240222050158 52 282 0.0 0.0 0.00 0.00 0.00 84 1005.0
20240222045656 52 284 0.0 0.0 0.00 0.00 0.00 84 1005.0
20240222045156 51 298 0.0 0.0 0.00 0.00 0.00 84 1005.0
20240222044655 51 240 0.9 0.9 0.00 0.00 0.00 86 1005.0
20240222044155 50 284 0.0 0.0 0.00 0.00 0.00 86 1005.0
20240222043653 50 274 0.0 0.0 0.00 0.00 0.00 87 1005.0
20240222043152 50 275 0.0 0.0 0.00 0.00 0.00 87 1005.0
20240222042651 50 275 0.0 0.0 0.00 0.00 0.00 87 1005.3
20240222042147 50 279 0.0 0.0 0.00 0.00 0.00 86 1005.0
20240222041645 50 278 0.0 0.0 0.00 0.00 0.00 86 1005.0
20240222041144 50 279 0.0 0.0 0.00 0.00 0.00 86 1005.0
20240222040643 50 305 0.0 0.0 0.00 0.00 0.00 86 1005.3
20240222040142 50 278 0.0 0.0 0.00 0.00 0.00 86 1005.3
20240222035641 50 272 0.0 0.0 0.00 0.00 0.00 85 1005.0
20240222035140 51 278 0.0 0.0 0.00 0.00 0.00 85 1005.0
20240222034640 50 295 0.0 0.0 0.00 0.00 0.00 85 1005.3
20240222034136 50 281 0.0 0.0 0.00 0.00 0.00 85 1005.3
20240222033636 50 278 0.0 0.0 0.00 0.00 0.00 85 1005.3
20240222033132 50 276 0.0 0.0 0.00 0.00 0.00 86 1005.3
20240222032630 49 236 0.0 0.0 0.00 0.00 0.00 86 1005.3
20240222032129 49 236 0.0 0.0 0.00 0.00 0.00 85 1005.3
20240222031627 50 236 0.0 0.0 0.00 0.00 0.00 85 1005.7
20240222031126 50 236 0.0 0.0 0.00 0.00 0.00 85 1005.7
20240222030622 50 236 0.0 0.0 0.00 0.00 0.00 84 1005.7
20240222030122 50 236 0.0 0.0 0.00 0.00 0.00 84 1005.7
20240222025620 50 236 0.0 0.0 0.00 0.00 0.00 84 1005.7
20240222025118 50 236 0.0 0.0 0.00 0.00 0.00 83 1005.7
20240222024616 51 236 0.0 0.0 0.00 0.00 0.00 83 1006.0
20240222024116 51 236 0.0 0.0 0.00 0.00 0.00 82 1006.0
20240222023615 51 236 0.0 0.0 0.00 0.00 0.00 82 1006.0
20240222023113 50 234 0.0 0.0 0.00 0.00 0.00 83 1006.0
20240222022612 51 234 0.0 0.0 0.00 0.00 0.00 83 1006.0
20240222022111 51 234 0.0 0.0 0.00 0.00 0.00 83 1006.0
20240222021610 51 234 0.0 0.0 0.00 0.00 0.00 83 1006.0
20240222021109 51 234 0.0 0.0 0.00 0.00 0.00 83 1006.0
20240222020608 50 234 0.0 0.0 0.00 0.00 0.00 83 1006.0
20240222020108 51 234 0.0 0.9 0.00 0.00 0.00 82 1006.0
20240222015607 52 234 0.0 0.9 0.00 0.00 0.00 81 1006.0
20240222015107 53 234 0.0 0.0 0.00 0.00 0.00 80 1005.7
20240222014606 53 234 0.0 0.0 0.00 0.00 0.00 80 1006.0
20240222014104 53 234 0.0 0.0 0.00 0.00 0.00 79 1006.0
20240222013603 53 234 0.0 0.0 0.00 0.00 0.00 79 1005.7
20240222013101 54 234 0.0 0.0 0.00 0.00 0.00 78 1006.0
20240222012559 54 234 0.0 0.0 0.00 0.00 0.00 78 1006.0
20240222012058 54 234 0.0 0.0 0.00 0.00 0.00 78 1006.0
20240222011556 54 234 0.0 0.0 0.00 0.00 0.00 77 1006.0
20240222011056 55 234 0.0 0.0 0.00 0.00 0.00 76 1006.3
20240222010555 55 234 0.9 0.9 0.00 0.00 0.00 77 1006.3
20240222010053 54 234 0.9 0.9 0.00 0.00 0.00 78 1006.0
20240222005551 55 234 1.7 2.6 0.00 0.00 0.00 77 1006.0
20240222005051 55 234 0.9 0.9 0.00 0.00 0.00 77 1006.0
20240222004550 55 234 0.9 0.9 0.00 0.00 0.00 77 1006.0
20240222004048 55 234 0.9 0.9 0.00 0.00 0.00 77 1006.0
20240222003548 55 234 0.0 0.9 0.00 0.00 0.00 77 1006.0
20240222003047 55 234 0.9 0.9 0.00 0.00 0.00 77 1006.3
20240222002547 55 234 0.9 0.9 0.00 0.00 0.00 76 1006.3
20240222002045 55 234 0.9 0.9 0.00 0.00 0.00 76 1006.3
20240222001543 55 234 1.7 2.6 0.00 0.00 0.00 76 1006.0
20240222001040 55 236 0.9 0.9 0.00 0.00 0.00 75 1006.3
20240222000539 55 236 0.0 0.9 0.00 0.00 0.00 75 1006.0
20240222000038 55 236 0.0 0.0 0.00 0.00 0.00 75 1006.0
20240221235534 55 236 0.0 0.9 0.00 0.00 0.00 76 1006.0
20240221235032 55 236 0.9 0.9 0.00 0.00 0.00 75 1006.0
20240221234529 56 236 0.0 0.0 0.00 0.00 0.00 74 1006.0
20240221234027 56 236 0.9 0.9 0.00 0.00 0.00 73 1006.0
20240221233525 57 236 1.7 2.6 0.00 0.00 0.00 72 1006.0
20240221233024 57 236 0.9 0.9 0.00 0.00 0.00 71 1006.0
20240221232521 57 242 0.0 0.9 0.00 0.00 0.00 70 1006.0
20240221232020 58 223 0.9 0.9 0.00 0.00 0.00 68 1006.0
20240221231518 58 225 1.7 2.6 0.00 0.00 0.00 67 1006.0
20240221231005 59 231 0.9 0.9 0.00 0.00 0.00 64 1006.0
20240221230505 60 166 1.7 2.6 0.00 0.00 0.00 62 1006.0
20240221230004 60 198 2.6 3.5 0.00 0.00 0.00 61 1006.0
20240221225504 60 235 0.9 0.9 0.00 0.00 0.00 60 1006.0
20240221225003 60 238 0.9 0.9 0.00 0.00 0.00 60 1006.3
20240221224502 61 249 0.9 0.9 0.00 0.00 0.00 62 1006.3
20240221224000 61 248 0.9 0.9 0.00 0.00 0.00 59 1006.3
20240221223500 62 251 0.0 0.0 0.00 0.00 0.00 59 1006.3
20240221222958 62 247 0.9 0.9 0.00 0.00 0.00 55 1006.7
20240221222456 62 261 0.0 0.0 0.00 0.00 0.00 53 1006.7
20240221221954 62 265 0.0 0.0 0.00 0.00 0.00 55 1006.7
20240221221451 63 273 0.0 0.0 0.00 0.00 0.00 54 1006.7
20240221220947 62 274 0.0 0.0 0.00 0.00 0.00 54 1006.7
20240221220446 62 279 0.0 0.0 0.00 0.00 0.00 53 1007.0
20240221215945 62 258 0.0 0.0 0.00 0.00 0.00 53 1007.0
20240221215443 62 258 0.0 0.0 0.00 0.00 0.00 54 1006.7
20240221214942 62 242 1.7 2.6 0.00 0.00 0.00 54 1007.0
20240221214442 62 265 0.0 0.0 0.00 0.00 0.00 53 1007.0
20240221213941 63 244 0.0 0.9 0.00 0.00 0.00 53 1007.0
20240221213440 63 214 2.6 3.5 0.00 0.00 0.00 52 1007.0
20240221212939 63 239 0.9 2.6 0.00 0.00 0.00 52 1007.0
20240221212435 63 245 0.0 0.9 0.00 0.00 0.00 52 1007.0
20240221211934 63 274 0.0 0.0 0.00 0.00 0.00 52 1007.0
20240221211433 63 265 0.0 0.0 0.00 0.00 0.00 51 1007.3
20240221210931 63 175 0.0 0.9 0.00 0.00 0.00 51 1007.3
20240221210428 63 297 1.7 2.6 0.00 0.00 0.00 51 1007.3
20240221205927 63 203 0.9 0.9 0.00 0.00 0.00 51 1007.3
20240221205426 63 245 1.7 2.6 0.00 0.00 0.00 51 1007.3
20240221204926 64 168 0.9 2.6 0.00 0.00 0.00 51 1007.3
20240221204424 64 165 3.5 6.1 0.00 0.00 0.00 51 1007.3
20240221203922 63 255 0.0 0.0 0.00 0.00 0.00 52 1007.8
20240221203421 63 157 3.5 6.1 0.00 0.00 0.00 51 1007.3
20240221202920 63 277 0.9 0.9 0.00 0.00 0.00 52 1007.8
20240221202419 63 292 1.7 2.6 0.00 0.00 0.00 53 1007.8
20240221201916 63 161 5.2 6.1 0.00 0.00 0.00 55 1007.3
20240221201416 63 180 0.9 2.6 0.00 0.00 0.00 54 1007.8
20240221200915 63 228 0.9 2.6 0.00 0.00 0.00 54 1007.8
20240221200414 62 179 3.5 5.2 0.00 0.00 0.00 54 1008.1
20240221195915 62 211 2.6 3.5 0.00 0.00 0.00 53 1008.1
20240221195413 62 244 0.0 0.9 0.00 0.00 0.00 53 1008.1
20240221194913 62 160 3.5 5.2 0.00 0.00 0.00 54 1008.1
20240221194412 62 212 0.0 0.9 0.00 0.00 0.00 53 1008.1
20240221193911 62 167 6.1 7.8 0.00 0.00 0.00 52 1008.1
20240221193409 62 188 2.6 5.2 0.00 0.00 0.00 52 1008.1
20240221192908 62 186 3.5 5.2 0.00 0.00 0.00 52 1008.5
20240221192406 62 172 2.6 3.5 0.00 0.00 0.00 52 1008.5
20240221191904 62 144 5.2 7.8 0.00 0.00 0.00 52 1008.5
20240221191402 62 313 3.5 5.2 0.00 0.00 0.00 54 1008.5
20240221190901 62 178 2.6 3.5 0.00 0.00 0.00 55 1008.5
20240221190358 62 148 1.7 3.5 0.00 0.00 0.00 54 1008.5
20240221185857 62 236 2.6 5.2 0.00 0.00 0.00 55 1008.5
20240221185354 62 243 1.7 5.2 0.00 0.00 0.00 54 1008.5
20240221184849 62 155 8.7 13.9 0.00 0.00 0.00 54 1008.5
20240221184349 62 188 3.5 5.2 0.00 0.00 0.00 56 1008.5
20240221183848 61 160 4.3 6.1 0.00 0.00 0.00 55 1008.5
20240221183346 61 162 6.1 12.2 0.00 0.00 0.00 55 1008.5
20240221182845 61 177 7.8 11.3 0.00 0.00 0.00 55 1008.8
20240221182343 62 187 3.5 6.1 0.00 0.00 0.00 54 1008.8
20240221181842 62 137 5.2 6.1 0.00 0.00 0.00 54 1008.8
20240221181341 62 181 6.1 8.7 0.00 0.00 0.00 52 1009.1
20240221180841 63 166 4.3 8.7 0.00 0.00 0.00 54 1009.1
20240221180340 63 173 3.5 5.2 0.00 0.00 0.00 54 1009.1
20240221175841 62 156 6.1 7.8 0.00 0.00 0.00 52 1009.5
20240221175340 62 167 3.5 6.1 0.00 0.00 0.00 54 1009.5
20240221174838 60 173 6.1 8.7 0.00 0.00 0.00 56 1007.0
20240221174334 60 280 4.3 6.1 0.00 0.00 0.00 54 1009.8
20240221173834 60 188 7.8 12.2 0.00 0.00 0.00 56 1009.8
20240221173332 60 206 5.2 8.7 0.00 0.00 0.00 55 1009.8
20240221172830 60 169 6.1 11.3 0.00 0.00 0.00 56 1010.2
20240221172328 60 168 7.0 8.7 0.00 0.00 0.00 57 1010.2
20240221171808 59 153 5.2 8.7 0.00 0.00 0.00 59 1010.2
20240221171307 59 177 6.1 9.6 0.00 0.00 0.00 59 1010.5
20240221170805 60 149 10.4 13.9 0.00 0.00 0.00 58 1010.5
20240221170305 60 177 11.3 15.6 0.00 0.00 0.00 57 1010.5
20240221165803 58 260 5.2 7.8 0.00 0.00 0.00 60 1010.5
20240221165305 57 147 7.8 12.2 0.00 0.00 0.00 61 1010.2
20240221164748 56 168 7.8 8.7 0.00 0.00 0.00 63 1010.5
20240221164248 56 157 6.1 9.6 0.00 0.00 0.00 62 1010.5
20240221163747 57 200 6.1 7.8 0.00 0.00 0.00 61 1010.5
20240221163245 57 148 10.4 13.9 0.00 0.00 0.00 59 1010.5
20240221162743 57 170 7.8 11.3 0.00 0.00 0.00 61 1010.8
20240221162241 57 171 6.1 9.6 0.00 0.00 0.00 60 1010.8
20240221161728 56 187 6.1 7.8 0.00 0.00 0.00 62 1010.8
20240221161227 55 191 8.7 13.9 0.00 0.00 0.00 62 1010.8
20240221160727 55 178 7.8 11.3 0.00 0.00 0.00 63 1011.2
20240221160225 55 197 9.6 11.3 0.00 0.00 0.00 61 1010.8
20240221155724 55 147 4.3 7.8 0.00 0.00 0.00 62 1011.2
20240221155222 54 88 7.8 9.6 0.00 0.00 0.00 63 1011.2
20240221154718 53 208 4.3 6.1 0.00 0.00 0.00 65 1011.2
20240221154216 52 170 8.7 11.3 0.00 0.00 0.00 67 1011.2
20240221153715 52 167 7.8 8.7 0.00 0.00 0.00 67 1011.2
20240221153213 52 233 6.1 8.7 0.00 0.00 0.00 68 1011.2
20240221152709 52 153 7.8 11.3 0.00 0.00 0.00 67 1011.5
20240221152206 52 174 6.1 8.7 0.00 0.00 0.00 68 1011.5
20240221151705 51 192 4.3 5.2 0.00 0.00 0.00 69 1011.5
20240221151205 50 207 6.1 7.8 0.00 0.00 0.00 69 1011.5
20240221150656 50 197 5.2 7.8 0.00 0.00 0.00 70 1011.5
20240221150155 49 155 7.0 8.7 0.00 0.00 0.00 71 1011.2
20240221145654 49 142 7.0 8.7 0.00 0.00 0.00 73 1011.5
20240221145153 48 180 7.8 11.3 0.00 0.00 0.00 74 1011.5
20240221144653 46 197 5.2 6.1 0.00 0.00 0.00 76 1011.5
20240221144153 45 247 7.0 8.7 0.00 0.00 0.00 77 1011.9
20240221143651 44 168 6.1 7.8 0.00 0.00 0.00 79 1011.5
20240221143151 44 179 5.2 7.8 0.00 0.00 0.00 80 1011.9
20240221142651 45 190 6.1 6.1 0.00 0.00 0.00 79 1011.5
20240221142151 44 168 5.2 6.1 0.00 0.00 0.00 80 1011.9
20240221141649 43 173 7.0 8.7 0.00 0.00 0.00 82 1011.5
20240221141146 42 167 5.2 6.1 0.00 0.00 0.00 82 1011.9
20240221140646 42 183 5.2 6.1 0.00 0.00 0.00 82 1011.9
20240221140145 41 184 6.1 6.1 0.00 0.00 0.00 83 1011.9
20240221135644 41 177 5.2 7.8 0.00 0.00 0.00 83 1011.9
20240221135143 40 174 7.0 8.7 0.00 0.00 0.00 83 1011.9
20240221134643 39 179 3.5 5.2 0.00 0.00 0.00 83 1011.9
20240221134143 39 158 4.3 5.2 0.00 0.00 0.00 83 1011.9
20240221133642 39 168 6.1 7.8 0.00 0.00 0.00 84 1011.9
20240221133141 38 163 6.1 7.8 0.00 0.00 0.00 84 1011.9
20240221132639 38 184 6.1 7.8 0.00 0.00 0.00 84 1011.9
20240221132138 38 182 6.1 8.7 0.00 0.00 0.00 84 1011.9
20240221131637 38 176 6.1 7.8 0.00 0.00 0.00 84 1011.9
20240221131136 38 168 5.2 6.1 0.00 0.00 0.00 83 1011.9
20240221130635 38 165 6.1 7.8 0.00 0.00 0.00 83 1011.9
20240221130133 38 180 4.3 5.2 0.00 0.00 0.00 83 1011.9
20240221125633 38 170 7.0 8.7 0.00 0.00 0.00 83 1012.3
20240221125132 38 187 6.1 7.8 0.00 0.00 0.00 83 1012.3
20240221124631 38 171 4.3 6.1 0.00 0.00 0.00 83 1012.3
20240221124130 38 172 4.3 5.2 0.00 0.00 0.00 83 1012.3
20240221123630 38 161 6.1 7.8 0.00 0.00 0.00 82 1012.3
20240221123130 38 181 4.3 5.2 0.00 0.00 0.00 82 1012.3
20240221122628 38 189 4.3 5.2 0.00 0.00 0.00 83 1012.3
20240221122127 37 195 2.6 3.5 0.00 0.00 0.00 83 1012.6
20240221121626 38 175 3.5 3.5 0.00 0.00 0.00 83 1012.3